When you browse on this site, cookies collect data to enhance your experience and personalize the content and advertising you see.
Visit our Privacy Policy to learn more. By continuing to use the site, you agree to this use of cookies and data.
  • In United Kingdom
  • List of Countries
  • For 7 days
  • Water Temperature
  • Weather Map
  • Weather Widgets
  • user-avatar
    Login

    Hourly Weather Florianópolis

    Today, 18 February, Tuesday

    Time Temperature Precipitation Wind Pressure Humidity
    00:00 +26°C° 0 mm 3 mps 758 mmHg 93%
    01:00 +25°C° 0 mm 3 mps 758 mmHg 93%
    02:00 +25°C° 0 mm 3 mps 758 mmHg 93%
    03:00 +25°C° 0 mm 3 mps 757 mmHg 92%
    04:00 +25°C° 0 mm 3 mps 757 mmHg 92%
    05:00 +25°C° 0 mm 3 mps 758 mmHg 91%
    06:00 +25°C° 0 mm 3 mps 758 mmHg 90%
    07:00 +27°C° 0 mm 3 mps 758 mmHg 80%
    08:00 +29°C° 0 mm 3 mps 758 mmHg 71%
    09:00 +31°C° 0 mm 3 mps 758 mmHg 61%
    10:00 +34°C° 0 mm 4 mps 758 mmHg 56%
    11:00 +36°C° 0 mm 4 mps 757 mmHg 51%
    12:00 +37°C° 0 mm 5 mps 757 mmHg 45%
    13:00 +39°C° 0 mm 5 mps 756 mmHg 46%
    14:00 +39°C° 0 mm 5 mps 756 mmHg 47%
    15:00 +39°C° 0 mm 5 mps 755 mmHg 48%
    16:00 +35°C° 0.4 mm 4 mps 756 mmHg 61%
    17:00 +32°C° 0.4 mm 2 mps 756 mmHg 73%
    18:00 +29°C° 0.4 mm 1 mps 756 mmHg 86%
    19:00 +28°C° 1.4 mm 1 mps 757 mmHg 88%
    20:00 +28°C° 1.4 mm 1 mps 757 mmHg 90%
    21:00 +27°C° 1.4 mm 2 mps 758 mmHg 92%
    22:00 +27°C° 0.6 mm 2 mps 758 mmHg 93%
    23:00 +26°C° 0.6 mm 2 mps 758 mmHg 93%

    Tomorrow, 19 February, Wednesday

    Time Temperature Precipitation Wind Pressure Humidity
    00:00 +26°C° 0.6 mm 1 mps 758 mmHg 93%
    01:00 +26°C° 0.1 mm 2 mps 758 mmHg 93%
    02:00 +26°C° 0.1 mm 2 mps 757 mmHg 94%
    03:00 +26°C° 0.1 mm 2 mps 757 mmHg 94%
    04:00 +26°C° 0 mm 2 mps 757 mmHg 94%
    05:00 +26°C° 0 mm 2 mps 757 mmHg 94%
    06:00 +25°C° 0 mm 2 mps 757 mmHg 94%
    07:00 +26°C° 0 mm 2 mps 758 mmHg 91%
    08:00 +27°C° 0 mm 2 mps 758 mmHg 89%
    09:00 +28°C° 0 mm 2 mps 759 mmHg 86%
    10:00 +29°C° 0 mm 2 mps 758 mmHg 81%
    11:00 +30°C° 0 mm 2 mps 758 mmHg 76%
    12:00 +30°C° 0 mm 3 mps 758 mmHg 71%
    13:00 +30°C° 0 mm 3 mps 758 mmHg 73%
    14:00 +30°C° 0 mm 3 mps 757 mmHg 75%
    15:00 +29°C° 0 mm 3 mps 757 mmHg 77%
    16:00 +29°C° 0 mm 3 mps 757 mmHg 81%
    17:00 +28°C° 0 mm 2 mps 757 mmHg 85%
    18:00 +27°C° 0 mm 2 mps 756 mmHg 89%
    19:00 +27°C° 0.2 mm 2 mps 757 mmHg 91%
    20:00 +27°C° 0.2 mm 2 mps 757 mmHg 92%
    21:00 +27°C° 0.2 mm 2 mps 758 mmHg 94%
    22:00 +27°C° 0.3 mm 1 mps 758 mmHg 94%
    23:00 +27°C° 0.3 mm 1 mps 758 mmHg 94%

    Day after tomorrow, 20 February, Thursday

    Time Temperature Precipitation Wind Pressure Humidity
    00:00 +27°C° 0.3 mm 1 mps 758 mmHg 94%
    01:00 +26°C° 0.1 mm 1 mps 757 mmHg 94%
    02:00 +26°C° 0.1 mm 1 mps 757 mmHg 94%
    03:00 +24°C° 0.1 mm 0 mps 756 mmHg 94%
    04:00 +26°C° 0 mm 1 mps 756 mmHg 94%
    05:00 +25°C° 0 mm 1 mps 756 mmHg 94%
    06:00 +25°C° 0 mm 1 mps 756 mmHg 93%
    07:00 +25°C° 0 mm 0 mps 756 mmHg 87%
    08:00 +26°C° 0 mm 0 mps 756 mmHg 80%
    09:00 +28°C° 0 mm 0 mps 757 mmHg 74%
    10:00 +32°C° 0 mm 1 mps 756 mmHg 68%
    11:00 +34°C° 0 mm 2 mps 756 mmHg 61%
    12:00 +36°C° 0 mm 2 mps 756 mmHg 55%
    13:00 +35°C° 0.4 mm 2 mps 755 mmHg 60%
    14:00 +34°C° 0.4 mm 3 mps 755 mmHg 65%
    15:00 +33°C° 0.4 mm 3 mps 754 mmHg 71%
    16:00 +31°C° 0.6 mm 2 mps 754 mmHg 76%
    17:00 +30°C° 0.6 mm 2 mps 754 mmHg 81%
    18:00 +29°C° 0.6 mm 2 mps 754 mmHg 86%
    19:00 +28°C° 2.2 mm 2 mps 755 mmHg 89%
    20:00 +28°C° 2.2 mm 2 mps 756 mmHg 91%
    21:00 +27°C° 2.2 mm 2 mps 757 mmHg 94%
    22:00 +27°C° 0.9 mm 3 mps 757 mmHg 93%
    23:00 +26°C° 0.9 mm 4 mps 757 mmHg 93%

    21 February, Friday

    Time Temperature Precipitation Wind Pressure Humidity
    00:00 +26°C° 0.9 mm 5 mps 758 mmHg 92%
    01:00 +25°C° 0 mm 5 mps 757 mmHg 91%
    02:00 +25°C° 0 mm 5 mps 757 mmHg 91%
    03:00 +23°C° 0 mm 5 mps 757 mmHg 90%
    10:00 +23°C° 0.1 mm 6 mps 758 mmHg 84%
    11:00 +23°C° 0.1 mm 6 mps 759 mmHg 79%
    12:00 +24°C° 0.1 mm 6 mps 759 mmHg 74%
    13:00 +24°C° 0 mm 6 mps 758 mmHg 70%
    14:00 +26°C° 0 mm 6 mps 758 mmHg 66%
    15:00 +26°C° 0 mm 6 mps 758 mmHg 62%
    16:00 +24°C° 0 mm 6 mps 758 mmHg 63%
    17:00 +24°C° 0 mm 6 mps 758 mmHg 63%
    18:00 +23°C° 0 mm 6 mps 758 mmHg 64%
    19:00 +22°C° 0 mm 6 mps 759 mmHg 67%
    20:00 +21°C° 0 mm 6 mps 760 mmHg 70%
    21:00 +20°C° 0 mm 6 mps 760 mmHg 73%
    22:00 +20°C° 0 mm 6 mps 760 mmHg 75%
    23:00 +20°C° 0 mm 6 mps 761 mmHg 76%

    22 February, Saturday

    Time Temperature Precipitation Wind Pressure Humidity
    00:00 +19°C° 0 mm 5 mps 761 mmHg 78%
    01:00 +19°C° 0 mm 5 mps 760 mmHg 76%
    02:00 +18°C° 0 mm 4 mps 760 mmHg 74%
    03:00 +18°C° 0 mm 3 mps 760 mmHg 73%
    04:00 +18°C° 0 mm 3 mps 760 mmHg 72%
    05:00 +18°C° 0 mm 3 mps 761 mmHg 71%
    06:00 +17°C° 0 mm 3 mps 761 mmHg 70%
    07:00 +19°C° 0 mm 3 mps 761 mmHg 66%
    08:00 +22°C° 0 mm 3 mps 761 mmHg 61%
    09:00 +25°C° 0 mm 3 mps 761 mmHg 56%
    10:00 +26°C° 0 mm 3 mps 762 mmHg 54%
    11:00 +27°C° 0 mm 4 mps 762 mmHg 51%
    12:00 +28°C° 0 mm 5 mps 762 mmHg 49%
    13:00 +27°C° 0 mm 5 mps 761 mmHg 53%
    14:00 +27°C° 0 mm 5 mps 761 mmHg 58%
    15:00 +26°C° 0 mm 6 mps 761 mmHg 62%
    16:00 +24°C° 0 mm 6 mps 761 mmHg 65%
    17:00 +23°C° 0 mm 5 mps 761 mmHg 68%
    18:00 +22°C° 0 mm 5 mps 761 mmHg 72%
    19:00 +22°C° 0.1 mm 5 mps 762 mmHg 74%
    20:00 +21°C° 0.1 mm 4 mps 762 mmHg 77%
    21:00 +20°C° 0.1 mm 4 mps 763 mmHg 79%
    22:00 +20°C° 0.1 mm 4 mps 763 mmHg 80%
    23:00 +20°C° 0.1 mm 3 mps 763 mmHg 81%

    23 February, Sunday

    Time Temperature Precipitation Wind Pressure Humidity
    00:00 +20°C° 0.1 mm 3 mps 763 mmHg 81%
    01:00 +20°C° 0 mm 2 mps 763 mmHg 81%
    02:00 +20°C° 0 mm 2 mps 763 mmHg 81%
    03:00 +19°C° 0 mm 2 mps 762 mmHg 81%
    04:00 +19°C° 0 mm 2 mps 762 mmHg 80%
    05:00 +20°C° 0 mm 1 mps 763 mmHg 80%
    06:00 +20°C° 0 mm 1 mps 763 mmHg 79%
    07:00 +22°C° 0 mm 1 mps 763 mmHg 73%
    08:00 +23°C° 0 mm 1 mps 763 mmHg 66%
    09:00 +25°C° 0 mm 1 mps 763 mmHg 59%
    10:00 +26°C° 0 mm 1 mps 763 mmHg 56%
    11:00 +26°C° 0 mm 2 mps 763 mmHg 54%
    12:00 +27°C° 0 mm 3 mps 763 mmHg 51%
    13:00 +27°C° 0 mm 3 mps 763 mmHg 51%
    14:00 +27°C° 0 mm 3 mps 762 mmHg 51%
    15:00 +27°C° 0 mm 3 mps 762 mmHg 51%
    16:00 +26°C° 0 mm 3 mps 762 mmHg 54%
    17:00 +26°C° 0 mm 3 mps 762 mmHg 57%
    18:00 +25°C° 0 mm 3 mps 761 mmHg 60%
    19:00 +24°C° 0 mm 3 mps 762 mmHg 65%
    20:00 +22°C° 0 mm 3 mps 762 mmHg 70%
    21:00 +21°C° 0 mm 3 mps 763 mmHg 75%
    22:00 +21°C° 0.1 mm 3 mps 762 mmHg 78%
    23:00 +21°C° 0.1 mm 3 mps 762 mmHg 80%
    Show more